GFSSE_850_thetae_093.txt.gz
Theta_e
336 329 325 327 324 329 327 322 322 329 328 326 329 329 322 315 318 320 323 330 333 335 335 333 332 331 331 333 333 333 334 335 335 336 335 335 335 335 335 334 333 333 332
337 333 325 320 316 318 320 320 328 333 331 333 329 325 317 312 313 319 322 322 321 327 326 328 328 329 330 331 330 330 328 331 331 332 332 331 332 333 332 331 331 332 332
337 332 320 317 316 317 317 321 328 329 334 333 327 318 313 311 312 319 330 323 318 316 314 314 318 322 325 322 321 321 321 324 326 328 330 329 330 329 330 330 329 329 330
338 327 318 314 312 312 315 316 325 331 334 330 318 313 311 310 314 326 327 327 317 315 313 311 311 311 313 314 316 316 317 320 329 329 330 330 330 328 327 324 324 326 325
335 335 317 315 312 312 313 316 327 331 331 326 315 310 309 310 313 316 329 328 321 314 316 313 312 311 312 313 317 318 323 326 327 329 328 328 330 325 323 325 327 326 325
337 334 317 316 315 313 313 313 323 330 330 320 315 311 309 309 311 313 322 327 328 317 312 316 318 316 316 314 315 317 321 324 326 326 325 324 324 324 324 325 324 324 324
339 332 318 317 318 318 316 314 316 321 322 319 316 314 311 309 309 310 318 327 322 321 319 322 326 326 322 319 319 319 320 324 325 325 325 323 323 323 323 322 322 321 322
336 334 319 319 319 320 319 317 315 316 322 319 317 315 314 312 310 309 312 327 327 324 324 325 325 324 324 317 316 320 319 322 323 324 323 322 321 320 321 321 321 321 320
337 335 323 320 320 320 320 320 318 317 318 319 318 317 316 315 313 311 310 323 327 325 320 318 318 317 315 314 317 319 318 318 323 323 322 320 319 319 320 320 319 319 319
337 339 334 326 321 321 321 321 321 320 320 320 320 319 318 317 315 314 311 310 319 324 318 316 314 313 314 314 315 316 317 321 322 322 321 317 315 317 316 318 319 318 317
336 336 336 334 328 324 322 322 322 322 322 321 322 322 321 319 318 316 313 311 310 314 312 311 312 312 313 312 313 315 318 322 321 321 320 316 315 314 310 308 311 314 315
335 337 334 336 333 328 325 324 323 323 323 323 323 323 323 322 320 320 314 311 310 310 311 310 311 312 313 319 316 316 322 321 321 320 319 316 315 315 313 308 305 306 308
335 333 330 331 335 331 329 327 325 325 325 325 325 325 325 324 323 321 320 315 314 312 313 311 311 312 314 317 320 321 322 320 321 320 318 316 316 315 314 312 307 305 305
335 335 329 330 330 332 332 330 329 327 326 326 326 326 326 325 325 324 323 320 317 315 316 314 313 314 315 316 317 318 319 320 321 319 319 318 317 317 316 314 312 309 304
334 335 332 329 329 330 331 331 331 330 329 328 328 327 327 327 326 326 325 324 320 319 318 318 317 318 319 319 319 319 319 318 318 318 318 317 317 317 317 317 316 314 311
333 334 335 331 329 329 333 332 331 330 331 329 329 329 328 328 328 327 327 326 325 322 321 320 320 320 320 320 320 319 319 318 318 318 318 318 318 318 317 317 317 317 316
332 334 334 334 332 332 333 333 333 332 332 331 330 330 329 329 329 328 328 328 327 326 324 323 322 321 321 322 321 321 320 319 319 319 318 318 318 318 318 318 317 317 316
332 333 335 333 329 327 328 329 330 329 329 329 330 329 328 328 329 328 327 326 325 325 325 324 323 323 322 322 321 321 321 320 320 319 319 319 319 318 318 318 318 318 317
332 332 334 334 323 325 326 328 329 329 330 330 330 329 329 327 327 327 326 325 326 326 325 324 324 324 323 322 322 322 322 322 322 322 322 322 321 321 320 319 319 318 318
330 331 332 334 331 325 328 330 330 331 331 331 331 331 331 330 328 327 326 325 326 325 324 324 324 325 325 324 322 322 322 322 322 322 322 322 322 322 322 321 321 320 320
314 326 329 331 332 332 326 329 331 331 331 330 330 331 331 332 331 329 328 328 328 327 327 326 325 325 325 325 325 325 324 323 322 323 323 322 321 321 321 321 321 321 321
312 312 320 328 331 333 328 326 330 332 330 326 330 331 333 334 330 331 331 330 328 328 328 328 328 328 328 327 327 325 323 323 323 324 322 322 324 323 322 322 321 320 320
311 311 312 314 325 330 331 327 330 335 332 330 329 331 329 332 329 329 330 329 329 329 328 328 328 328 328 327 327 324 321 322 322 323 322 322 323 323 322 322 322 321 321
312 312 312 311 312 319 327 329 327 329 331 330 332 331 331 331 331 329 327 328 328 328 326 327 328 328 327 326 325 324 325 324 320 321 321 321 322 321 321 321 322 321 321
313 312 311 310 310 311 313 320 326 328 331 329 327 328 327 328 328 329 327 325 326 325 325 325 325 326 327 326 325 324 324 324 322 320 317 318 320 321 321 320 320 320 320
312 313 313 312 311 310 310 311 321 321 326 326 326 325 324 324 325 325 325 324 324 324 323 324 324 324 324 324 324 324 323 323 322 320 321 320 318 318 317 318 319 319 319

GFSSE_850_thetae_096.txt.gz
Theta_e
334 328 324 327 330 320 322 321 328 329 325 327 328 320 316 318 318 322 329 334 336 333 333 334 329 330 333 333 333 334 334 334 335 334 334 334 334 334 333 331 332 332 332
334 326 327 325 315 319 325 328 333 329 332 325 321 315 313 313 314 318 317 324 329 324 330 329 330 329 327 326 326 325 330 330 330 331 331 331 332 331 331 331 331 332 332
334 326 322 318 319 318 321 331 332 332 331 321 314 313 311 311 318 320 317 313 314 316 315 314 320 316 317 318 317 319 321 325 328 327 329 330 329 328 330 329 328 329 329
334 322 318 314 314 319 322 326 331 333 330 316 312 311 310 311 323 330 325 315 312 312 312 311 311 312 313 314 316 317 326 328 328 327 327 327 332 328 324 325 326 326 322
330 319 314 312 313 315 318 331 331 332 328 316 310 309 310 310 321 330 326 318 311 313 312 311 311 312 313 314 315 323 326 326 327 326 326 326 325 325 325 325 326 325 324
333 317 315 313 312 313 317 329 330 331 321 315 311 309 309 310 312 324 327 321 313 312 314 316 316 313 314 314 318 321 324 325 325 325 323 323 323 325 323 324 324 322 323
331 318 316 315 315 314 314 325 330 323 319 316 314 312 310 309 309 316 327 321 319 316 327 325 323 322 313 316 317 319 324 324 324 323 322 322 322 323 322 322 322 322 321
326 318 318 318 318 317 316 316 326 319 319 317 316 314 313 311 310 311 326 325 325 322 318 314 317 314 312 314 316 315 320 323 323 322 321 320 317 320 322 320 320 320 320
331 320 319 319 320 319 319 317 317 320 319 319 317 316 315 314 312 311 323 328 325 324 316 313 314 311 312 313 315 315 317 323 322 321 320 316 317 319 316 315 318 317 316
333 327 321 320 320 320 320 320 319 319 320 321 320 319 318 316 313 312 313 324 326 325 318 316 315 313 313 313 314 316 321 322 322 321 320 315 313 312 309 309 312 310 310
335 334 331 324 322 321 321 321 321 321 321 322 322 321 321 319 317 316 312 311 312 312 311 312 312 312 313 313 314 316 320 320 321 320 319 315 314 313 309 306 304 304 304
335 334 334 331 329 326 323 322 323 323 323 323 323 323 323 322 321 321 315 313 312 312 313 312 312 312 315 318 318 318 321 319 321 319 317 315 315 314 312 309 305 304 304
335 335 335 335 332 329 327 324 324 324 324 324 324 324 324 324 323 323 321 317 316 316 316 314 313 314 315 316 318 318 320 319 320 320 318 317 317 316 315 313 311 307 304
335 334 332 331 335 331 330 328 327 326 325 325 325 325 325 325 325 325 325 324 321 319 319 317 316 317 317 318 319 319 318 318 320 319 317 317 317 317 317 317 317 315 311
335 335 331 330 330 333 333 330 331 329 328 327 327 327 326 326 326 326 325 325 324 321 320 320 319 319 319 320 320 319 319 318 318 318 318 318 318 318 318 317 317 317 317
335 335 334 330 329 330 331 331 331 333 333 329 328 328 328 328 327 327 327 326 326 325 322 321 321 321 322 322 321 321 320 319 319 319 319 319 319 319 318 318 318 318 317
333 334 335 334 330 328 328 330 332 331 330 332 329 329 329 329 328 328 328 327 326 326 326 325 324 323 322 321 321 321 321 321 320 320 319 319 319 319 319 319 318 318 317
331 333 334 334 332 326 329 331 332 330 331 331 331 330 327 328 329 328 327 325 324 324 324 324 324 323 323 323 322 322 322 321 322 322 321 321 321 321 320 320 320 320 319
331 331 333 334 333 328 324 327 328 328 328 328 329 330 330 328 327 327 326 327 326 324 325 325 325 324 324 324 324 324 323 323 321 322 322 322 322 322 322 321 321 321 321
331 332 332 333 334 329 325 325 327 328 328 328 328 329 330 331 330 329 328 327 326 325 325 324 324 324 324 324 324 324 323 323 324 323 323 323 323 323 323 322 321 321 321
329 331 332 333 334 332 328 327 328 328 328 329 332 332 335 334 329 329 330 328 327 327 325 325 325 325 326 326 326 326 326 326 323 325 325 322 322 323 323 323 323 322 321
313 319 328 330 332 333 332 330 327 330 331 332 334 333 332 331 329 328 329 328 328 327 326 326 326 327 325 325 325 325 323 322 323 323 323 324 324 324 322 323 322 322 322
311 311 314 325 330 332 333 332 334 334 333 332 333 331 331 331 327 327 326 329 327 327 326 327 327 326 326 325 325 324 322 322 323 322 322 322 322 322 322 322 321 321 321
311 310 310 312 323 329 331 332 329 333 330 329 327 329 327 327 326 325 326 325 326 327 327 325 324 324 326 325 326 325 323 323 322 319 320 321 322 320 320 319 320 319 319
312 312 311 310 312 324 329 330 331 330 328 326 325 325 324 325 325 325 324 324 323 323 324 323 324 325 323 325 321 322 323 321 320 320 318 317 318 318 317 318 318 317 316
312 312 311 309 310 313 322 327 327 327 325 325 323 323 323 323 323 322 322 322 322 322 321 322 321 321 321 319 319 318 319 318 318 318 317 317 315 315 315 315 313 314 314

GFSSE_850_thetae_102.txt.gz
Theta_e
330 324 329 326 323 321 325 325 325 324 321 316 316 316 319 326 331 335 334 333 328 328 327 326 330 331 330 329 330 331 331 332 333 333 334 332 332 331 331 331 330 331 332
325 324 330 327 318 325 330 329 323 316 316 313 312 312 314 313 318 326 328 327 320 326 331 323 325 327 324 322 323 322 324 326 328 330 329 330 330 329 330 329 329 330 328
329 325 327 327 321 331 332 330 324 313 312 312 316 323 317 313 313 316 320 317 312 318 314 315 316 317 317 324 325 328 324 323 324 326 326 327 327 328 328 326 327 327 327
326 327 317 320 321 333 332 331 322 311 310 311 317 330 328 316 311 312 311 311 313 314 314 313 313 315 320 324 324 325 325 324 324 323 324 326 329 330 326 325 322 321 322
326 319 317 319 321 329 330 328 322 310 312 313 317 330 328 318 313 311 311 311 316 317 315 312 314 317 322 324 325 324 324 324 322 321 323 323 323 325 324 322 322 322 322
320 315 313 316 320 331 330 328 316 313 310 312 313 314 319 320 316 311 311 312 312 317 313 311 313 317 319 319 319 321 321 319 319 319 321 323 323 323 323 322 322 320 320
315 312 312 314 327 330 328 324 315 314 312 311 310 310 312 318 315 313 313 313 321 311 310 310 312 315 316 318 320 319 319 319 318 315 317 318 316 318 321 321 320 320 319
314 313 313 313 327 330 331 321 317 315 314 313 313 312 312 314 324 320 315 313 310 310 310 310 311 313 314 317 316 318 319 319 317 315 314 312 317 318 317 315 316 316 316
315 316 316 315 316 325 325 318 318 317 317 316 315 314 313 314 320 324 319 314 312 310 310 311 311 312 313 314 315 317 318 318 317 317 315 314 313 311 309 307 308 308 307
317 317 318 317 316 317 318 319 319 319 319 319 318 317 315 313 314 315 314 313 312 311 311 311 312 312 313 314 316 317 317 316 317 317 315 314 313 312 309 307 305 304 304
318 318 318 318 318 318 318 319 319 320 321 321 321 320 320 317 315 314 313 312 313 313 312 312 313 313 314 314 315 317 317 318 318 318 317 317 316 315 313 311 307 304 304
319 319 319 319 318 319 320 320 320 321 321 322 322 322 322 322 321 318 315 315 315 315 314 314 314 316 317 317 317 318 318 318 318 317 317 317 317 317 317 317 315 313 310
325 322 321 321 320 320 320 321 321 322 322 323 323 324 324 323 323 323 320 319 318 318 317 316 316 317 318 318 319 318 318 318 317 317 317 317 317 317 317 317 317 317 317
333 328 326 324 324 324 323 322 322 322 323 323 324 324 324 325 325 324 324 324 322 320 320 319 318 319 319 321 321 320 319 318 319 318 319 318 318 318 318 318 318 318 318
334 331 329 329 328 327 326 326 325 325 325 325 325 325 325 325 325 326 325 325 325 324 322 321 321 321 321 321 321 321 320 320 320 320 320 320 320 319 319 319 319 319 319
333 332 332 331 329 328 329 328 328 327 327 326 326 326 326 326 326 326 326 326 326 326 325 325 324 323 322 321 321 321 321 321 321 321 321 320 320 321 321 320 320 320 320
332 332 333 333 332 330 329 330 329 329 328 327 327 327 327 327 327 327 326 326 322 321 324 323 323 323 323 322 322 322 323 323 323 323 322 323 323 323 322 321 321 321 321
332 333 333 333 333 331 330 330 330 330 330 330 328 328 328 327 327 326 326 326 324 324 324 323 323 324 323 323 323 322 322 322 322 323 324 324 324 324 323 323 323 322 321
332 333 333 333 333 332 331 330 330 330 332 330 331 331 331 327 326 326 326 326 326 325 325 324 323 323 322 322 321 322 322 323 323 321 322 321 323 322 322 323 323 323 322
330 331 332 332 332 331 331 331 329 330 334 333 330 329 330 330 328 328 328 328 326 325 324 323 322 322 322 323 322 323 322 323 322 321 320 320 319 321 321 321 322 322 322
329 329 330 330 330 331 331 331 326 332 333 334 332 329 326 327 327 326 326 326 325 326 325 325 324 325 325 326 322 321 320 320 321 320 321 321 320 320 320 320 319 319 320
329 330 330 330 329 330 330 330 332 327 331 329 327 327 327 327 327 326 325 325 325 325 323 324 322 324 322 325 324 322 319 320 320 320 320 317 315 315 315 314 314 315 315
329 329 330 330 331 331 331 332 332 330 326 327 327 327 327 326 326 325 324 324 324 323 325 325 323 324 323 321 321 322 321 319 318 316 315 314 314 311 312 311 311 310 310
326 327 329 330 331 331 332 332 330 327 326 326 326 325 325 325 325 324 323 323 323 323 323 324 323 322 322 321 320 319 319 317 316 315 314 311 310 310 307 307 305 305 304
312 315 325 328 329 331 332 331 329 328 327 326 325 324 324 324 323 322 322 322 322 322 321 321 320 319 319 318 317 316 317 317 316 312 311 310 310 306 305 305 301 301 302
312 311 311 311 320 327 329 330 328 328 327 325 324 323 322 322 322 321 321 321 321 320 320 318 316 315 313 311 311 310 308 309 310 309 310 306 304 301 299 297 297 298 302

GFSSE_850_thetae_105.txt.gz
Theta_e
330 324 331 331 329 324 324 324 323 319 316 317 321 325 332 335 335 335 333 328 328 332 334 332 330 329 327 327 328 329 331 332 333 332 332 332 331 330 330 330 330 330 330
329 327 330 323 324 332 328 320 316 316 313 313 313 314 319 326 329 329 327 323 321 323 330 328 326 323 320 322 322 322 323 326 328 328 329 329 329 329 328 328 329 328 327
326 328 328 326 330 332 329 321 312 312 312 316 315 313 312 314 317 319 319 313 312 320 321 321 321 319 319 322 317 318 320 322 324 324 325 326 327 327 327 324 323 324 321
324 327 325 325 329 332 329 318 311 311 310 327 329 316 312 310 311 311 311 312 315 317 319 319 316 315 318 319 319 319 319 319 320 320 321 326 326 326 326 323 321 320 320
324 325 320 321 331 330 328 318 310 310 311 328 330 318 314 311 311 311 313 318 317 318 318 314 314 317 319 321 320 320 318 317 318 319 322 323 325 325 322 320 320 322 322
326 318 319 321 329 329 326 316 311 311 310 317 329 322 314 311 310 310 310 311 310 311 311 313 316 317 317 317 316 316 317 317 315 317 319 320 320 323 322 320 321 317 316
320 316 318 321 330 328 321 314 313 312 310 311 313 311 311 310 310 311 315 310 310 310 311 314 316 315 315 316 316 316 317 316 316 314 313 313 316 318 320 317 316 315 312
315 315 317 321 330 327 319 315 314 313 313 312 312 312 315 316 314 314 312 310 310 310 311 313 314 314 314 314 314 315 317 316 316 315 314 313 313 311 309 308 309 308 307
313 314 316 326 329 330 320 317 316 315 314 314 313 313 314 316 317 314 313 312 311 310 311 311 312 313 313 313 314 316 316 317 316 315 314 314 313 311 309 306 305 304 304
313 314 315 321 325 326 319 319 318 318 317 317 316 314 314 314 315 314 313 312 312 311 312 312 312 312 313 314 315 316 316 318 317 317 317 316 316 315 313 311 307 305 304
315 315 315 315 317 317 318 319 319 319 319 319 319 318 317 316 315 314 313 313 314 313 312 313 313 315 315 316 317 317 317 317 317 317 317 317 317 317 316 317 316 315 313
317 317 317 317 317 318 318 319 320 320 321 321 322 321 321 321 319 316 316 315 315 315 315 314 315 316 317 318 318 318 318 317 317 317 317 317 317 318 317 317 317 317 317
318 319 318 317 318 318 319 320 320 321 321 322 323 323 323 322 322 322 320 319 319 318 318 316 317 318 318 319 319 319 319 319 319 319 319 319 318 318 318 318 319 319 318
319 320 319 319 319 319 320 320 321 321 322 322 323 323 324 324 324 324 323 323 322 321 320 319 319 319 320 321 321 320 320 320 320 320 320 320 320 320 320 320 319 319 320
325 322 322 321 321 321 321 322 322 322 323 323 324 324 324 325 325 325 325 325 324 324 322 321 321 321 321 321 321 321 320 321 321 321 321 321 321 321 320 320 320 320 321
332 331 327 326 325 326 325 324 324 324 325 325 325 325 325 325 325 326 326 325 325 325 325 324 323 323 322 321 322 322 322 322 322 322 322 322 323 323 323 323 322 321 320
330 332 330 328 329 327 327 327 327 327 327 327 327 326 326 326 326 326 326 325 323 320 321 322 322 322 322 323 322 322 322 321 321 322 323 323 323 322 323 323 322 322 323
330 331 331 331 330 330 329 328 329 329 329 328 327 327 327 327 326 326 325 325 324 324 324 323 323 323 322 322 321 321 321 321 322 322 321 321 322 321 322 322 322 322 322
330 330 332 332 331 330 331 330 329 330 330 328 329 328 329 329 324 325 325 325 325 325 325 323 323 321 321 321 321 321 321 322 321 321 322 321 320 320 320 321 320 321 321
329 330 332 332 332 332 332 331 331 329 329 329 328 327 327 327 327 327 326 327 325 324 324 323 323 322 322 322 322 321 321 321 320 320 320 320 320 318 318 317 319 318 318
330 331 332 333 333 333 333 332 332 329 330 329 328 328 327 327 325 325 325 324 324 323 324 323 323 323 322 323 321 323 322 319 320 319 318 316 316 314 313 311 313 311 310
330 330 331 331 333 332 332 330 330 329 325 328 327 327 327 326 325 325 325 325 324 324 323 323 323 325 323 325 321 320 320 318 318 316 313 312 314 309 308 307 304 303 302
328 328 329 329 330 331 330 330 332 330 328 326 326 326 326 325 325 325 325 325 324 323 322 323 323 323 324 322 322 320 320 318 316 314 310 310 306 304 302 299 298 297 297
327 328 329 329 330 330 330 330 332 329 328 326 325 325 325 326 326 325 324 323 323 322 321 322 322 321 320 320 319 318 317 315 313 311 309 303 301 299 298 297 297 297 297
328 328 329 329 329 330 330 331 330 329 328 325 325 325 324 324 324 323 322 322 321 321 321 320 320 319 318 317 317 316 312 307 307 309 305 302 298 296 296 295 296 296 296
321 326 327 328 328 329 330 331 330 329 328 326 324 324 323 323 322 321 321 321 320 320 320 319 318 316 314 311 308 307 305 303 300 299 298 296 295 295 295 297 295 296 298